• în România
  • Lista ţărilor
  • Pe 7 zile
  • Temperatura apei
  • Hartă satelitară
  • Meteo pe hartă
  • Widget-uri
  • user-avatar
    Intrare

    Meteo pe oră la Koprivnica

    Astăzi, 23 Septembrie, Duminică

    Timp Temperatura Precipitaţii Vânt Presiune Umiditate
    00:00 +11°C° 0 mm 0 m/s 754 mmHg 75%
    01:00 +11°C° 0 mm 0 m/s 754 mmHg 73%
    02:00 +12°C° 0 mm 0 m/s 753 mmHg 72%
    03:00 +12°C° 0 mm 0 m/s 753 mmHg 71%
    04:00 +12°C° 0 mm 0 m/s 753 mmHg 70%
    05:00 +13°C° 0 mm 1 m/s 753 mmHg 69%
    06:00 +13°C° 0 mm 1 m/s 753 mmHg 67%
    07:00 +14°C° 0 mm 1 m/s 753 mmHg 66%
    08:00 +15°C° 0 mm 1 m/s 753 mmHg 60%
    09:00 +18°C° 0 mm 1 m/s 753 mmHg 54%
    10:00 +19°C° 0 mm 2 m/s 753 mmHg 48%
    11:00 +21°C° 0 mm 2 m/s 752 mmHg 47%
    12:00 +23°C° 0 mm 2 m/s 752 mmHg 46%
    13:00 +25°C° 0 mm 2 m/s 751 mmHg 45%
    14:00 +25°C° 0 mm 3 m/s 751 mmHg 47%
    15:00 +26°C° 0 mm 3 m/s 750 mmHg 49%
    16:00 +26°C° 0 mm 3 m/s 749 mmHg 51%
    17:00 +24°C° 0 mm 3 m/s 749 mmHg 57%
    18:00 +22°C° 0 mm 3 m/s 748 mmHg 63%
    19:00 +20°C° 0 mm 3 m/s 748 mmHg 70%
    20:00 +20°C° 0 mm 3 m/s 747 mmHg 71%
    21:00 +20°C° 0 mm 4 m/s 746 mmHg 72%
    22:00 +20°C° 0 mm 4 m/s 746 mmHg 73%
    23:00 +20°C° 0 mm 4 m/s 745 mmHg 75%

    Mâine, 24 Septembrie, Luni

    Timp Temperatura Precipitaţii Vânt Presiune Umiditate
    00:00 +20°C° 0 mm 4 m/s 744 mmHg 77%
    01:00 +20°C° 0 mm 5 m/s 744 mmHg 79%
    02:00 +20°C° 1.4 mm 4 m/s 744 mmHg 83%
    03:00 +20°C° 1.4 mm 4 m/s 745 mmHg 86%
    04:00 +19°C° 1.4 mm 4 m/s 746 mmHg 90%
    05:00 +17°C° 2 mm 4 m/s 748 mmHg 89%
    06:00 +14°C° 2 mm 5 m/s 750 mmHg 87%
    07:00 +13°C° 2 mm 5 m/s 751 mmHg 86%
    08:00 +12°C° 0.7 mm 5 m/s 753 mmHg 84%
    09:00 +12°C° 0.7 mm 4 m/s 755 mmHg 83%
    10:00 +11°C° 0.7 mm 3 m/s 756 mmHg 81%
    11:00 +12°C° 0.1 mm 3 m/s 757 mmHg 73%
    12:00 +14°C° 0.1 mm 3 m/s 757 mmHg 65%
    13:00 +16°C° 0.1 mm 3 m/s 757 mmHg 56%
    14:00 +15°C° 0 mm 4 m/s 757 mmHg 51%
    15:00 +17°C° 0 mm 4 m/s 757 mmHg 45%
    16:00 +17°C° 0 mm 4 m/s 757 mmHg 40%
    17:00 +14°C° 0 mm 4 m/s 758 mmHg 44%
    18:00 +13°C° 0 mm 3 m/s 758 mmHg 49%
    19:00 +12°C° 0 mm 2 m/s 759 mmHg 53%
    20:00 +10°C° 0 mm 2 m/s 759 mmHg 55%
    21:00 +10°C° 0 mm 2 m/s 760 mmHg 57%
    22:00 +10°C° 0 mm 1 m/s 760 mmHg 60%
    23:00 +9°C° 0 mm 1 m/s 761 mmHg 62%

    Poimâine, 25 Septembrie, Marţi

    Timp Temperatura Precipitaţii Vânt Presiune Umiditate
    00:00 +9°C° 0 mm 1 m/s 761 mmHg 63%
    01:00 +9°C° 0 mm 1 m/s 761 mmHg 65%
    02:00 +8°C° 0 mm 1 m/s 761 mmHg 67%
    03:00 +8°C° 0 mm 1 m/s 761 mmHg 69%
    04:00 +8°C° 0 mm 1 m/s 762 mmHg 70%
    05:00 +8°C° 0 mm 1 m/s 762 mmHg 69%
    06:00 +8°C° 0 mm 2 m/s 762 mmHg 68%
    07:00 +8°C° 0 mm 2 m/s 763 mmHg 67%
    08:00 +10°C° 0 mm 3 m/s 763 mmHg 59%
    09:00 +12°C° 0 mm 4 m/s 763 mmHg 50%
    10:00 +13°C° 0 mm 5 m/s 763 mmHg 41%
    11:00 +14°C° 0 mm 5 m/s 763 mmHg 38%
    12:00 +15°C° 0 mm 5 m/s 763 mmHg 35%
    13:00 +15°C° 0 mm 5 m/s 762 mmHg 32%
    14:00 +15°C° 0 mm 5 m/s 762 mmHg 33%
    15:00 +15°C° 0 mm 4 m/s 762 mmHg 33%
    16:00 +15°C° 0 mm 4 m/s 762 mmHg 33%
    17:00 +13°C° 0 mm 4 m/s 762 mmHg 38%
    18:00 +11°C° 0 mm 3 m/s 763 mmHg 43%
    19:00 +9°C° 0 mm 2 m/s 763 mmHg 48%
    20:00 +8°C° 0 mm 2 m/s 764 mmHg 50%
    21:00 +8°C° 0 mm 2 m/s 764 mmHg 53%
    22:00 +7°C° 0 mm 2 m/s 765 mmHg 56%
    23:00 +7°C° 0 mm 2 m/s 765 mmHg 58%

    26 Septembrie, Miercuri

    Timp Temperatura Precipitaţii Vânt Presiune Umiditate
    00:00 +6°C° 0 mm 2 m/s 765 mmHg 61%
    01:00 +6°C° 0 mm 2 m/s 765 mmHg 64%
    02:00 +5°C° 0 mm 2 m/s 765 mmHg 67%
    03:00 +6°C° 0 mm 1 m/s 765 mmHg 69%
    04:00 +5°C° 0 mm 1 m/s 765 mmHg 71%
    05:00 +6°C° 0 mm 1 m/s 765 mmHg 70%
    06:00 +6°C° 0 mm 1 m/s 765 mmHg 68%
    07:00 +7°C° 0 mm 1 m/s 765 mmHg 67%
    08:00 +10°C° 0 mm 1 m/s 765 mmHg 59%
    09:00 +12°C° 0 mm 1 m/s 765 mmHg 50%
    10:00 +15°C° 0 mm 1 m/s 765 mmHg 42%
    11:00 +16°C° 0 mm 1 m/s 764 mmHg 39%
    12:00 +18°C° 0 mm 1 m/s 764 mmHg 35%
    13:00 +18°C° 0 mm 2 m/s 763 mmHg 32%
    14:00 +19°C° 0 mm 1 m/s 763 mmHg 32%
    15:00 +19°C° 0 mm 1 m/s 762 mmHg 33%
    16:00 +18°C° 0 mm 1 m/s 762 mmHg 34%
    17:00 +15°C° 0 mm 1 m/s 762 mmHg 39%
    18:00 +13°C° 0 mm 1 m/s 762 mmHg 45%
    19:00 +11°C° 0 mm 1 m/s 762 mmHg 50%
    20:00 +10°C° 0 mm 1 m/s 762 mmHg 51%
    21:00 +10°C° 0 mm 1 m/s 762 mmHg 52%
    22:00 +9°C° 0 mm 1 m/s 762 mmHg 53%
    23:00 +9°C° 0 mm 1 m/s 762 mmHg 54%

    27 Septembrie, Joi

    Timp Temperatura Precipitaţii Vânt Presiune Umiditate
    00:00 +9°C° 0 mm 1 m/s 761 mmHg 55%
    01:00 +8°C° 0 mm 1 m/s 761 mmHg 57%
    02:00 +8°C° 0 mm 1 m/s 761 mmHg 58%
    03:00 +8°C° 0 mm 1 m/s 761 mmHg 59%
    04:00 +7°C° 0 mm 1 m/s 760 mmHg 61%
    05:00 +8°C° 0 mm 1 m/s 760 mmHg 60%
    06:00 +8°C° 0 mm 1 m/s 760 mmHg 59%
    07:00 +9°C° 0 mm 1 m/s 760 mmHg 58%
    08:00 +12°C° 0 mm 1 m/s 760 mmHg 50%
    09:00 +15°C° 0 mm 1 m/s 760 mmHg 43%
    10:00 +18°C° 0 mm 1 m/s 760 mmHg 35%
    11:00 +20°C° 0 mm 1 m/s 759 mmHg 33%
    12:00 +22°C° 0 mm 1 m/s 759 mmHg 30%
    13:00 +23°C° 0 mm 1 m/s 759 mmHg 27%
    14:00 +23°C° 0 mm 1 m/s 758 mmHg 29%
    15:00 +23°C° 0 mm 1 m/s 758 mmHg 31%
    16:00 +22°C° 0 mm 1 m/s 757 mmHg 33%
    17:00 +18°C° 0 mm 0 m/s 757 mmHg 37%
    18:00 +15°C° 0 mm 0 m/s 757 mmHg 42%
    19:00 +13°C° 0 mm 0 m/s 757 mmHg 46%
    20:00 +12°C° 0 mm 0 m/s 757 mmHg 47%
    21:00 +12°C° 0 mm 0 m/s 757 mmHg 48%
    22:00 +11°C° 0 mm 0 m/s 757 mmHg 50%
    23:00 +11°C° 0 mm 0 m/s 757 mmHg 51%

    28 Septembrie, Vineri

    Timp Temperatura Precipitaţii Vânt Presiune Umiditate
    00:00 +10°C° 0 mm 0 m/s 756 mmHg 52%
    01:00 +10°C° 0 mm 0 m/s 756 mmHg 54%
    02:00 +9°C° 0 mm 0 m/s 756 mmHg 55%
    03:00 +9°C° 0 mm 0 m/s 756 mmHg 56%
    04:00 +9°C° 0 mm 0 m/s 755 mmHg 57%
    05:00 +9°C° 0 mm 0 m/s 755 mmHg 57%
    06:00 +10°C° 0 mm 0 m/s 755 mmHg 57%
    07:00 +11°C° 0 mm 0 m/s 755 mmHg 57%
    08:00 +14°C° 0 mm 0 m/s 755 mmHg 49%
    09:00 +16°C° 0 mm 0 m/s 755 mmHg 42%
    10:00 +19°C° 0 mm 0 m/s 755 mmHg 34%
    11:00 +23°C° 0 mm 1 m/s 754 mmHg 32%
    12:00 +24°C° 0 mm 1 m/s 754 mmHg 29%
    13:00 +26°C° 0 mm 1 m/s 753 mmHg 26%
    14:00 +25°C° 0 mm 1 m/s 753 mmHg 28%
    15:00 +25°C° 0 mm 1 m/s 753 mmHg 31%
    16:00 +24°C° 0 mm 1 m/s 752 mmHg 33%
    17:00 +22°C° 0 mm 1 m/s 752 mmHg 37%
    18:00 +20°C° 0 mm 1 m/s 752 mmHg 40%
    19:00 +16°C° 0 mm 1 m/s 752 mmHg 44%
    20:00 +14°C° 0 mm 0 m/s 753 mmHg 45%
    21:00 +14°C° 0 mm 0 m/s 753 mmHg 46%
    22:00 +13°C° 0 mm 0 m/s 753 mmHg 47%
    23:00 +13°C° 0 mm 0 m/s 753 mmHg 48%
    Arată mai mult